CDT,Max TemperatureF,Mean TemperatureF,Min TemperatureF,Max Dew PointF,MeanDew PointF,Min DewpointF,Max Humidity, Mean Humidity, Min Humidity, Max Sea Level PressureIn, Mean Sea Level PressureIn, Min Sea Level PressureIn, Max VisibilityMiles, Mean VisibilityMiles, Min VisibilityMiles, Max Wind SpeedMPH, Mean Wind SpeedMPH, Max Gust SpeedMPH,PrecipitationIn, CloudCover, Events, WindDirDegrees
2012-8-1,91,74,57,67,60,54,90,63,30,29.97,29.89,29.79,10,10,10,13,3,16,0.00,0,,224
2012-8-2,88,76,66,68,65,61,93,72,43,29.89,29.84,29.79,10,10,4,24,9,44,0.00,3,Rain-Thunderstorm,249
2012-8-3,90,76,62,69,63,55,100,74,31,29.97,29.92,29.87,10,7,0,12,6,,0.00,2,Fog,93
2012-8-4,73,68,63,68,64,58,96,88,70,29.99,29.89,29.80,10,8,1,23,10,37,0.65,5,Rain,260
2012-8-5,73,65,55,58,52,47,90,68,39,30.15,30.06,29.90,10,10,10,16,9,23,0.00,1,,301
2012-8-6,81,66,51,57,53,49,93,65,36,30.17,30.08,29.96,10,10,10,10,4,,0.00,0,,248
2012-8-7,84,72,60,65,55,47,90,57,27,30.01,29.96,29.93,10,10,10,15,5,21,0.00,0,,328
2012-8-8,77,66,57,63,58,52,96,77,52,30.05,30.02,29.99,10,9,2,13,7,,0.13,5,Rain,82
2012-8-9,69,62,57,63,58,55,100,90,81,30.04,30.00,29.97,10,8,2,16,7,23,1.21,8,Rain,74
2012-8-10,73,65,55,57,51,46,93,64,37,30.09,30.06,30.02,10,10,10,17,11,26,0.00,2,,18
2012-8-11,77,60,46,54,48,44,90,62,37,30.09,30.04,30.00,10,10,10,14,8,16,0.00,0,,340
2012-8-12,71,61,52,58,54,49,93,72,55,30.02,29.99,29.97,10,10,10,7,2,,0.00,2,,317
2012-8-13,80,69,59,61,58,54,96,77,43,30.00,29.97,29.92,10,9,5,15,5,,0.00,5,,288
2012-8-14,78,66,55,59,53,48,96,64,37,29.97,29.94,29.90,10,10,9,9,4,17,0.00,1,,323
2012-8-15,81,69,57,61,57,54,90,68,45,29.93,29.87,29.78,10,10,10,14,4,150,0.00,4,,179
2012-8-16,70,64,57,63,56,50,90,74,55,29.97,29.81,29.71,10,10,8,21,11,29,0.01,7,Rain,283
2012-8-17,71,60,48,50,45,38,93,63,34,30.05,30.02,29.97,10,10,10,17,9,22,0.00,0,,315
2012-8-18,75,59,45,52,47,42,90,62,39,30.04,30.00,29.94,10,10,10,14,4,20,0.00,2,Rain,304
2012-8-19,75,64,53,54,48,41,93,59,29,29.99,29.97,29.94,10,10,10,13,4,20,0.00,2,,345
2012-8-20,75,60,44,49,44,39,85,57,33,30.03,30.00,29.99,10,10,10,10,4,,0.00,1,,309
2012-8-21,79,63,48,52,47,45,86,59,33,30.09,30.06,30.03,10,10,10,9,4,,0.00,0,,279
2012-8-22,84,68,51,58,52,46,83,60,33,30.07,30.02,29.98,10,10,10,13,3,18,0.00,0,,211
2012-8-23,87,75,64,64,60,56,80,63,40,30.00,29.96,29.90,10,10,10,8,4,,0.00,1,,179
2012-8-24,87,74,64,65,60,57,88,64,41,29.95,29.92,29.89,10,10,6,17,9,30,0.08,3,Rain,213
2012-8-25,89,73,59,64,58,53,90,61,33,30.00,29.97,29.94,10,10,8,14,3,22,0.00,1,Rain,194
2012-8-26,81,72,64,68,65,60,100,86,60,30.02,29.99,29.95,10,6,2,8,4,,0.18,6,Rain,204
2012-8-27,82,70,57,59,57,55,97,65,39,30.12,30.07,30.02,10,10,7,14,6,18,0.00,0,,315
2012-8-28,80,66,55,59,56,54,93,68,45,30.18,30.11,30.06,10,10,10,7,1,,0.00,1,,155
2012-8-29,87,74,60,65,62,57,93,70,46,30.06,30.00,29.92,10,10,10,13,6,20,0.00,1,,164
2012-8-30,93,80,66,64,62,60,90,60,33,29.91,29.85,29.78,10,10,10,24,11,34,0.00,0,,206
2012-8-31,84,75,66,63,55,48,84,54,28,30.11,30.02,29.89,10,10,10,12,5,,0.00,0,,15